Weather History for Fayetteville, NC

Change the Weather History Date:

Thursday, May 30, 2013

  Actual Average Record
Temperature  
Mean Temperature 75 °F 75 °F  
Max Temperature 89 °F 86 °F 97 °F (1941)
Min Temperature 61 °F 63 °F 48 °F (1932)
Degree Days  
Heating Degree Days 0 0  
Month to date heating degree days 36 23  
Since 1 July heating degree days 2762 2730  
Cooling Degree Days 10 10  
Month to date cooling degree days 166 190  
Year to date cooling degree days 237 273  
Growing Degree Days 24 (Base 50)    
Moisture  
Dew Point 63 °F    
Average Humidity 70    
Maximum Humidity 100    
Minimum Humidity 40    
Precipitation  
Precipitation 0.00 in 0.15 in 1.48 in (1955)
Month to date precipitation 1.98 3.08  
Year to date precipitation 13.34 15.51  
Sea Level Pressure  
Sea Level Pressure 30.22 in    
Wind  
Wind Speed 5 mph (South)    
Max Wind Speed 13 mph    
Max Gust Speed 18 mph    
Visibility 7 miles    
Events Fog    
T = Trace of Precipitation, MM = Missing Value Source: NWS Daily Summary

Daily Weather History Graph

Daily Weather History Graph

Search for Another Location

Airport:

Trip Planner

Search our weather history database for the weather conditions in past years. The results will help you decide how hot, cold, wet, or windy it might be!

Date:

Astronomy

May. 30, 2013 Rise Set
Actual Time 6:03 AM EDT 8:23 PM EDT
Civil Twilight 5:34 AM EDT 8:52 PM EDT
Nautical Twilight 4:58 AM EDT 9:28 PM EDT
Astronomical Twilight 4:19 AM EDT 10:07 PM EDT
Moon 12:30 AM EDT (5/30) 12:00 PM EDT (5/30)
Length of Visible Light 15h 17m
Length of Day
14h 19m
Waning Gibbous, 62% of the Moon is Illuminated
May 30
Waning Gibbous
May 31
Last Quarter
Jun 8
New
Jun 16
First Quarter
Jun 23
Full

Hourly Weather History & Observations

Time (EDT) Temp. Heat Index Dew Point Humidity Pressure Visibility Wind Dir Wind Speed Gust Speed Precip Events Conditions
12:53 AM 68.0 °F - 63.0 °F 84% 30.21 in 10.0 mi South 3.5 mph - N/A   Clear
1:53 AM 66.9 °F - 63.0 °F 87% 30.21 in 10.0 mi South 4.6 mph - N/A   Clear
2:53 AM 66.0 °F - 63.0 °F 90% 30.21 in 10.0 mi South 3.5 mph - N/A   Clear
3:53 AM 64.0 °F - 62.1 °F 93% 30.20 in 10.0 mi Calm Calm - N/A   Clear
4:53 AM 62.1 °F - 60.1 °F 93% 30.22 in 2.5 mi Calm Calm - N/A   Clear
5:03 AM 62.6 °F - 60.8 °F 94% 30.24 in 1.2 mi Calm Calm - N/A   Clear
5:13 AM 60.8 °F - 60.8 °F 100% 30.24 in 0.8 mi Calm Calm - N/A   Clear
5:21 AM 62.6 °F - 60.8 °F 94% 30.24 in 0.2 mi Calm Calm - N/A Fog Fog
5:53 AM 63.0 °F - 61.0 °F 93% 30.24 in 0.5 mi Calm Calm - N/A Fog Fog
6:06 AM 60.8 °F - 60.8 °F 100% 30.26 in 3.0 mi Calm Calm - N/A   Mostly Cloudy
6:11 AM 62.6 °F - 60.8 °F 94% 30.26 in 1.5 mi Calm Calm - N/A   Overcast
6:16 AM 62.6 °F - 60.8 °F 94% 30.26 in 0.2 mi Calm Calm - N/A Fog Fog
6:53 AM 62.1 °F - 61.0 °F 96% 30.25 in 1.0 mi Calm Calm - N/A   Mist
6:57 AM 62.6 °F - 62.6 °F 100% 30.27 in 3.0 mi ESE 3.5 mph - N/A   Mostly Cloudy
7:06 AM 62.6 °F - 62.6 °F 100% 30.26 in 1.0 mi Calm Calm - N/A   Mist
7:24 AM 64.4 °F - 62.6 °F 94% 30.27 in 1.0 mi Calm Calm - N/A   Mist
7:53 AM 66.9 °F - 66.0 °F 97% 30.26 in 1.0 mi Calm Calm - N/A   Mist
8:00 AM 66.2 °F - 64.4 °F 94% 30.27 in 10.0 mi Calm Calm - N/A   Clear
8:53 AM 73.0 °F - 64.9 °F 76% 30.27 in 10.0 mi Calm Calm - N/A   Clear
9:53 AM 78.1 °F - 64.0 °F 62% 30.26 in 10.0 mi SSW 9.2 mph - N/A   Clear
10:53 AM 80.1 °F 81.5 °F 63.0 °F 56% 30.26 in 10.0 mi SSW 9.2 mph - N/A   Partly Cloudy
11:53 AM 82.0 °F 83.1 °F 63.0 °F 52% 30.25 in 10.0 mi WSW 8.1 mph - N/A   Partly Cloudy
12:53 PM 84.9 °F 85.9 °F 63.0 °F 48% 30.24 in 10.0 mi SSW 9.2 mph - N/A   Scattered Clouds
1:53 PM 84.9 °F 85.4 °F 62.1 °F 46% 30.22 in 10.0 mi SW 4.6 mph - N/A   Partly Cloudy
2:53 PM 87.1 °F 87.0 °F 61.0 °F 41% 30.19 in 10.0 mi South 6.9 mph - N/A   Partly Cloudy
3:53 PM 87.1 °F 87.0 °F 61.0 °F 41% 30.18 in 10.0 mi SW 4.6 mph - N/A   Partly Cloudy
4:53 PM 87.1 °F 87.0 °F 61.0 °F 41% 30.16 in 10.0 mi SW 4.6 mph - N/A   Partly Cloudy
5:53 PM 86.0 °F 86.3 °F 62.1 °F 44% 30.16 in 10.0 mi SE 4.6 mph - N/A   Partly Cloudy
6:53 PM 86.0 °F 86.8 °F 63.0 °F 46% 30.16 in 10.0 mi ESE 3.5 mph - N/A   Clear
7:53 PM 84.0 °F 85.8 °F 64.9 °F 53% 30.16 in 10.0 mi SE 5.8 mph - N/A   Partly Cloudy
8:53 PM 80.1 °F 82.3 °F 66.9 °F 64% 30.17 in 10.0 mi SSE 9.2 mph - N/A   Mostly Cloudy
9:53 PM 78.1 °F - 64.9 °F 64% 30.19 in 10.0 mi SSE 9.2 mph - N/A   Scattered Clouds
10:53 PM 75.0 °F - 64.9 °F 71% 30.19 in 10.0 mi SSE 5.8 mph - N/A   Clear
11:53 PM 73.0 °F - 66.0 °F 79% 30.20 in 10.0 mi South 6.9 mph - N/A   Clear